DELTA 1 DEB, 7839

Orbit data source: Space-Track

DELTA 1 DEB, 7839 is space debris in SSO originally from a launch on Sun, 23 Jul 1972 UTC launched from the Air Force Western Test Range (AFWTR). Debris objects in space refer to the collection of defunct objects orbiting the Earth. Examples of debris include non-operational satellites, rocket bodies, and fragments generated from explosions, collisions, or faulty payload assembly.

Loading next visibility...
Identifier
7839, 1972-058K
Orbit
SSO
Country
Flag of USUS
Related business
Manufacturer
Unknown
Mission
Spacecraft
Bus & Motor
Unknown
Mass
Unknown
Launch date (UTC)
1972-07-23 (53 years ago)
Launch vehicle
Unknown
Launch site
Air Force Western Test Range (AFWTR)
Object type
Payload
Rocket body
Debris
Shape & HBR
Unknown shape, 0.2 m
Radar Cross Section
Medium (>0.1 m² and <1 m²)

Expand to show TLE details & history
Last TLE update: 7 hours ago

TLE from 7 hours ago
0 DELTA 1 DEB
1 07839U 72058K   25299.91194111  .00002641  00000-0  48424-3 0  9991
2 07839  98.7380 142.6531 0161389  44.1023 317.2915 14.58601574611016
Epoch: 2025-10-26T21:53Z
TLE epoch observation values (Epoch: 2025-10-26T21:53:11.711Z)
Latitude
-0.00002°
Longitude
138.83297°
Altitude
617.593 km
Speed
7.594 km/s
True Right ascension
09h 30m 36s
True Declination
0° 00' 00"
Sunlit
Object was in daylight at epoch
Visualization orbit readout
Latitude
Unknown
Longitude
Unknown
Altitude
Unknown
Speed
Unknown
Apparent Right ascension
Unknown
Apparent Declination
Unknown
Sunlit
N/A
Visualization observer readout
Local Sidereal Time
00:04:07
Azimuth
Unknown
Elevation
Unknown
Doppler factor
Unknown
Orbital elements
Apogee altitude
808.95 km
Perigee altitude
580.651 km
Semi-major axis
7,072.937 km
Eccentricity
0.01614
Inclination
98.738°
RAAN
142.6531°
Arg. of periapsis
44.1023°
True anomaly
316.01836°
Mean anomaly
317.2915°
Eccentric anomaly
316.65682°
Mean motion
3.64874 °/min
Orbital period
98.66 mins
BSTAR
0.00048424
Loading maneuver chart data...
Computing Atmospheric mass density...
Loading historical data...
Loading historical data...
Loading historical data...
Loading historical data...
Loading historical data...
Loading historical data...
Loading historical data...

Documentation

Showing up to 5 results
|